Tracking 23446 objects as of 20-Jun-2021
HD Live streaming from Space Station
objects crossing your sky now

STARLINK-2563

Track STARLINK-2563 now!
10-day predictions
STARLINK-2563 is classified as:


NORAD ID: 48410
Int'l Code: 2021-038BK
Perigee: 355.1 km
Apogee: 358.6 km
Inclination: 53.1 °
Period: 91.5 minutes
Semi major axis: 6727 km
RCS: Unknown
Launch date: May 4, 2021
Source: United States (US)
Launch site: AIR FORCE EASTERN TEST RANGE (AFETR)
aabbcc
Your satellite tracking list
Your tracking list is empty




NASA's NSSDC Master Catalog

Two Line Element Set (TLE):
1 48410U 21038BK  21171.41667824 -.00001672  00000-0 -74690-5 0  9990
2 48410  53.0503 172.2673 0002580  17.5337 311.7658 15.73213912  7949
Source of the keplerian elements: AFSPC